Orbital Elements at Epoch 2459200.5 (2020-Dec-17.0) TDB
Reference: JPL 26 (heliocentric ecliptic J2000)
Element | Value | Uncertainty (1-sigma) | Units |
e | .1310715049359657 | 3.0932e-08 | |
a | 2.24298350349583 | 7.7276e-09 | au |
q | 1.948992280146086 | 6.8925e-08 | au |
i | 6.936115662962899 | 4.4038e-06 | deg |
node | 323.6664663688917 | 2.8877e-05 | deg |
peri | 105.2489728280101 | 3.4047e-05 | deg |
M | 134.3692886169532 | 1.7411e-05 | deg |
tp | 2458742.532073801010 (2019-Sep-16.03207380) | 5.8992e-05 | TDB |
period | 1226.980176263545 3.36 | 6.3409e-06 1.736e-08 | d yr |
n | .293403273308203 | 1.5163e-09 | deg/d |
Q | 2.536974726845573 | 8.7405e-09 | au |
|
| | Orbit Determination Parameters
Additional Information
|